Meteo Giornale » Osservazioni meteo Stati Uniti (USA) » Beaufort Michael J Smith Fld
ore: 06:07 - Osservazioni Meteo Beaufort Michael J Smith Fld
Lat. 34° 44' N Lon. 76° 39' W Alt. 3 metri s.l.m.
23 °C
Poco Nuvoloso
Temp. 24 Ore
23 °C
30 °C
Nord
0 Km/h
Dew point 23 °C
Umidità 100 %
Visibilità 10 Km
Il sole sorge alle ore 06:39
Il sole tramonta alle ore 19:33
| Data e Ora | Cielo e Fenomeni | T °C | DP °C | Um. % | Pres. hPa | Vis. km | Vento km/h | |
|---|---|---|---|---|---|---|---|---|
| Oggi h: 06:07 | Poco Nuvoloso | 23 | 23 | 100 | 1018 | 10 | N 0 | |
| Oggi h: 05:58 | Sereno | 23 | 23 | 100 | 1018 | 14 | N 0 | |
| Oggi h: 05:42 | Sereno | 23 | 23 | 100 | 1018 | 14 | N 5.5 | |
| Oggi h: 05:35 | Foschia | 23 | 23 | 100 | 1018 | 2 | N 5.5 | |
| Oggi h: 05:00 | Foschia | 23 | 23 | 100 | 1018 | 5 | N 0 | |
| Oggi h: 04:58 | Foschia | 23 | 23 | 100 | 1018 | 5 | N 0 | |
| Oggi h: 04:49 | Foschia | 23 | 23 | 100 | 1018 | 5 | N 0 | |
| Oggi h: 03:58 | Sereno | 24 | 23 | 94 | 1018 | 10 | N 0 | |
| Oggi h: 02:58 | Poco Nuvoloso | 24 | 23 | 94 | 1018 | 10 | N 0 | |
| Oggi h: 01:58 | Poco Nuvoloso | 24 | 23 | 94 | 1018 | 10 | N 0 | |
| Oggi h: 00:58 | Sereno | 24 | 23 | 94 | 1019 | 10 | N 0 | |
| Ieri h: 23:58 | Sereno | 24 | 23 | 94 | 1019 | 10 | N 0 | |
| Ieri h: 22:58 | Sereno | 25 | 23 | 88 | 1019 | 10 | N 0 | |
| Ieri h: 21:58 | Sereno | 26 | 23 | 83 | 1019 | 10 | N 5.5 | |
| Ieri h: 20:58 | Sereno | 27 | 24 | 83 | 1018 | 10 | SE 7.4 | |
| Ieri h: 19:58 | Sereno | 27 | 23 | 78 | 1018 | 10 | SE 7.4 | |
| Ieri h: 18:58 | Sereno | 28 | 22 | 69 | 1018 | 10 | SE 7.4 | |
| Ieri h: 17:58 | Sereno | 29 | 23 | 70 | 1018 | 10 | E/SE 13 | |
| Ieri h: 16:58 | Sereno | 29 | 24 | 74 | 1018 | 10 | N 7.4 | |
| Ieri h: 15:58 | Poco Nuvoloso | 29 | 24 | 74 | 1018 | 10 | E 13 | |
| Ieri h: 14:58 | Sereno | 29 | 25 | 79 | 1019 | 10 | E/SE 11.1 | |
| Ieri h: 14:06 | Pioggia | 28 | 25 | 83 | 1019 | 13 | E/SE 7.4 | |
| Ieri h: 13:58 | Pioggia | 27 | 24 | 83 | 1019 | 3 | E/SE 13 | |
| Ieri h: 13:49 | Pioggia | 27 | 23 | 78 | 1019 | 5 | N 9.3 | |
| Ieri h: 13:37 | Coperto | 29 | 24 | 74 | 1019 | 10 | E/SE 16.7 | |
| Ieri h: 12:58 | Poco Nuvoloso | 29 | 22 | 66 | 1019 | 10 | SE 9.3 | |
| Ieri h: 11:58 | Nuvoloso | 30 | 23 | 66 | 1020 | 10 | E/NE 7.4 | |
| Ieri h: 11:30 | Molto Nuvoloso | 29 | 23 | 70 | 1020 | 10 | N 5.5 | |
| Ieri h: 10:58 | Nuvoloso | 28 | 23 | 74 | 1020 | 10 | N/NO 7.4 | |
| Ieri h: 10:27 | Molto Nuvoloso | 28 | 23 | 74 | 1020 | 10 | N 7.4 | |
| Ieri h: 09:58 | Sereno | 26 | 23 | 83 | 1019 | 10 | N/NE 7.4 | |
| Ieri h: 08:58 | Sereno | 26 | 24 | 88 | 1019 | 10 | N 7.4 | |
| Ieri h: 08:05 | Nuvoloso | 24 | 24 | 100 | 1019 | 10 | N 0 | |
| Ieri h: 07:58 | Molto Nuvoloso | 24 | 24 | 100 | 1019 | 13 | N 0 | |
| Ieri h: 07:52 | Foschia | 24 | 23 | 94 | 1019 | 5 | N 0 | |
| Ieri h: 07:40 | Foschia | 24 | 23 | 94 | 1019 | 5 | N 0 | |
| Ieri h: 07:35 | Foschia | 24 | 23 | 94 | 1019 | 5 | N 0 | |
| Ieri h: 07:28 | Foschia | 23 | 23 | 100 | 1019 | 3 | N 0 | |
| Ieri h: 07:18 | Foschia | 23 | 23 | 100 | 1019 | 6 | N 0 | |
| Ieri h: 06:58 | Sereno | 23 | 23 | 100 | 1019 | 11 | N 5.5 | |



